Location: Corralito
(10.2667°N, 66.9500°W)
Time: 12:56:42
(UTC+00:00)

GPS 2-12 Rocket1 - Pass Details

Date: 14 December 2023
Orbit: 576 x 637 km, 20.0° (Epoch: 04 March)

Event Time Altitude Azimuth Distance (km) Brightness Sun altitude
Exits shadow 08:56:40 16° 204° (SSW) 1,517 5.0 -23.6°
Maximum altitude 08:56:45 16° 202° (SSW) 1,516 5.0 -23.6°
Drops below altitude 10° 08:59:31 10° 163° (SSE) 1,876 6.0 -22.9°
Sets 09:02:33 0° 141° (SE) 2,768 7.4 -22.2°
